FENGYUN 1C DEB, 37420

Orbit data source: Space-Track

FENGYUN 1C DEB, 37420 is space debris in SSO originally from a launch on Mon, 10 May 1999 UTC launched from the Taiyaun Space Center, China (TSC). Fengyun 1C debris stems from the Chinese weather satellite Fengyun-1C, which was intentionally destroyed by a Chinese anti-satellite missile in 2007. This event dramatically increased the amount of space debris, with thousands of trackable fragments posing hazards to satellites and human spaceflight. The Fengyun 1C debris cloud has become a focal point in discussions about space sustainability and the need for international regulations to prevent the creation of new debris.

Loading next visibility...
Identifier
37420, 1999-025EGN
Orbit
SSO
Country
Flag of CNCN / PRC
Related business
Manufacturer
Unknown
Mission
Spacecraft
Bus & Motor
Unknown
Mass
Unknown
Launch date (UTC)
1999-05-10 (27 years ago)
Launch vehicle
Unknown
Launch site
Taiyaun Space Center, China (TSC)
Object type
Payload
Rocket body
Debris
Shape & HBR
Unknown shape, 0.1 m
Radar Cross Section
Small (<0.1 m²)

Expand to show TLE details & history
Last TLE update: 3 weeks ago

TLE from 3 weeks ago
0 FENGYUN 1C DEB
1 37420U 99025EGN 26220.78071039  .00000012  00000-0  36948-4 0  9995
2 37420  98.8780 208.5083 0073163 330.4512  29.2528 13.99974912631093
Epoch: 2026-08-08T18:44Z
TLE epoch observation values (Epoch: 2026-08-08T18:44:13.377Z)
Latitude
0.00001°
Longitude
-29.83458°
Altitude
850.429 km
Speed
7.451 km/s
True Right ascension
13h 54m 01s
True Declination
0° 00' 00"
Sunlit
Object was in daylight at epoch
Visualization orbit readout
Latitude
Unknown
Longitude
Unknown
Altitude
Unknown
Speed
Unknown
Apparent Right ascension
Unknown
Apparent Declination
Unknown
Sunlit
N/A
Visualization observer readout
Local Sidereal Time
14:42:09
Azimuth
Unknown
Elevation
Unknown
Doppler factor
Unknown
Orbital elements
Apogee altitude
944.259 km
Perigee altitude
837.892 km
Semi-major axis
7,269.212 km
Eccentricity
0.00732
Inclination
98.878°
RAAN
208.5083°
Arg. of periapsis
330.4512°
True anomaly
29.66578°
Mean anomaly
29.2528°
Eccentric anomaly
29.45896°
Mean motion
3.50197 °/min
Orbital period
102.8 mins
BSTAR
0.000036948
Loading maneuver chart data...
Computing Atmospheric mass density...

Documentation

Showing up to 5 results
|